Find Starlink 34684

NORAD ID: 64862 Int'l Des: 2025-152 Owner: SPXS Country: US Constellation: starlink operational
LEOCIRCULARRETROGRADESSO

Live-Position

3D-Globus wird geladen...

Über Starlink 34684

Beschreibung wird geladen...

Nächste Überflüge

Passes for default location (London). Set your location on the main map for personalized predictions.

Höhenverlauf

Loading altitude history...

Zweizeiliger Elementsatz

1 64862U 25152W 26106.86184561 .00003530 00000-0 24874-3 0 9994
2 64862 97.6034 323.1748 0002237 88.1255 272.0227 15.05652698 41169
Epoch: 16. Apr. 2026 • Age: 15 hours

Aktueller Status

Höhe 573.3 km
Geschwindigkeit 7.57 km/s
Subsatellitenpunkt -57.79°S, 104.59°E
Startdatum 19. Juli 2025
Alter 0.7 years
Typ internet

Technische Details

Klassifizierung Payload
Masse 575.00 kg
Trockenmasse 530.00 kg
Gesamtmasse 575.00 kg
Länge 0.30 m
Durchmesser 4.10 m
Spannweite 29.00 m
Form Box + pan
Hersteller SPXS
Bus-Typ Starlink V2MO
Phasenstatus In Orbit
Besitzer/Staat SPXS/US

Most Searched